SL-14 DEB, 45298

Orbit data source: Space-Track

SL-14 DEB, 45298 is space debris in LEO originally from a launch on Thu, 15 Aug 1991 UTC launched from the Plesetsk Missile And Space Complex (PKMTR). Debris objects in space refer to the collection of defunct objects orbiting the Earth. Examples of debris include non-operational satellites, rocket bodies, and fragments generated from explosions, collisions, or faulty payload assembly.

Loading next visibility...
Identifier
45298, 1991-056AL
Orbit
LEO
Country
Flag of CISCIS
Related business
Manufacturer
Unknown
Mission
Spacecraft
Bus & Motor
Unknown
Mass
Unknown
Launch date (UTC)
1991-08-15 (34 years ago)
Launch vehicle
Unknown
Launch site
Plesetsk Missile And Space Complex (PKMTR)
Object type
Payload
Rocket body
Debris
Shape & HBR
Unknown shape, 0.3 m
Radar Cross Section
Medium (>0.1 m² and <1 m²)

Expand to show TLE details & history
Last TLE update: 7 hours ago

TLE from 7 hours ago
0 SL-14 DEB
1 45298U 91056AL  25346.98247328  .00005613  00000-0  63655-2 0  9994
2 45298  82.5964 177.3253 0165376 198.3770 161.1362 13.64450439286527
Epoch: 2025-12-12T23:34Z
TLE epoch observation values (Epoch: 2025-12-12T23:34:45.691Z)
Latitude
-0.00004°
Longitude
101.71863°
Altitude
1,138.436 km
Speed
7.226 km/s
True Right ascension
11h 49m 18s
True Declination
0° 00' 00"
Sunlit
Object was in daylight at epoch
Visualization orbit readout
Latitude
Unknown
Longitude
Unknown
Altitude
Unknown
Speed
Unknown
Apparent Right ascension
Unknown
Apparent Declination
Unknown
Sunlit
N/A
Visualization observer readout
Local Sidereal Time
05:23:38
Azimuth
Unknown
Elevation
Unknown
Doppler factor
Unknown
Orbital elements
Apogee altitude
1,139.031 km
Perigee altitude
894.444 km
Semi-major axis
7,394.875 km
Eccentricity
0.01654
Inclination
82.5964°
RAAN
177.3253°
Arg. of periapsis
198.377°
True anomaly
161.73714°
Mean anomaly
161.1362°
Eccentric anomaly
161.43783°
Mean motion
3.41308 °/min
Orbital period
105.48 mins
BSTAR
0.0063655
Loading maneuver chart data...
Computing Atmospheric mass density...
Loading historical data...
Loading historical data...
Loading historical data...
Loading historical data...
Loading historical data...
Loading historical data...
Loading historical data...

Documentation

Showing up to 5 results
|